WA6MEM Weather Reports


time (UTC)temp
F
wind
direction
speed
knots
gust
knots
rain 1hr
in
rain 24hr
in
rain mn
in
humidity
%
barometer
mb
20260509173517 57 173 1.7 0.0 0.00 0.00 0.00 96 1012.8
20260509173049 57 165 1.7 0.0 0.00 0.00 0.00 96 1012.8
20260509172517 57 201 1.7 0.0 0.00 0.00 0.00 96 1012.7
20260509172017 57 141 0.9 0.0 0.00 0.00 0.00 96 1012.7
20260509171526 57 174 0.9 0.0 0.00 0.00 0.00 96 1012.7
20260509171016 57 175 0.9 0.0 0.00 0.00 0.00 96 1012.4
20260509170516 57 28 1.7 0.0 0.00 0.00 0.00 96 1012.4
20260509170017 57 5 1.7 0.0 0.00 0.00 0.00 96 1012.4
20260509165515 57 36 1.7 0.0 0.00 0.00 0.00 96 1012.4
20260509165015 57 92 0.9 0.0 0.00 0.00 0.00 96 1012.4
20260509164517 57 27 0.9 0.0 0.00 0.00 0.00 96 1012.4
20260509164016 56 69 0.9 0.0 0.00 0.00 0.00 96 1012.5
20260509163513 56 73 0.9 0.0 0.00 0.00 0.00 96 1012.5
20260509163021 56 5 1.7 0.0 0.00 0.00 0.00 96 1012.5
20260509162513 56 30 1.7 0.0 0.00 0.00 0.00 96 1012.5
20260509162012 56 132 1.7 0.0 0.00 0.00 0.00 96 1012.5
20260509161512 56 105 1.7 0.0 0.00 0.00 0.00 96 1012.5
20260509161012 56 63 1.7 0.0 0.00 0.00 0.00 96 1012.4
20260509160512 56 57 0.9 0.0 0.00 0.00 0.00 96 1012.4
20260509160020 56 5 0.9 0.0 0.00 0.00 0.00 96 1012.4
20260509155510 56 32 0.9 0.0 0.00 0.00 0.00 96 1012.4
20260509155013 55 42 1.7 0.0 0.00 0.00 0.00 96 1012.4
20260509154510 55 44 2.6 0.0 0.00 0.00 0.00 96 1012.4
20260509154009 55 64 2.6 0.0 0.00 0.00 0.00 96 1012.5
20260509153509 55 63 1.7 0.0 0.00 0.00 0.00 96 1012.5
20260509153016 55 79 1.7 0.0 0.00 0.00 0.00 96 1012.5
20260509152509 55 69 1.7 0.0 0.00 0.00 0.00 96 1012.5
20260509152009 55 34 1.7 0.0 0.00 0.00 0.00 96 1012.5
20260509151509 55 61 1.7 0.0 0.00 0.00 0.00 96 1012.5
20260509151011 55 132 1.7 0.0 0.00 0.00 0.00 96 1012.4
20260509150508 55 50 1.7 0.0 0.00 0.00 0.00 96 1012.4
20260509150010 55 91 0.9 0.0 0.00 0.00 0.00 96 1012.4
20260509145508 55 26 0.9 0.0 0.00 0.00 0.00 96 1012.4
20260509145008 55 27 1.7 0.0 0.00 0.00 0.00 96 1012.4
20260509144507 55 24 2.6 0.0 0.00 0.00 0.00 96 1012.4
20260509144007 55 21 1.7 0.0 0.00 0.00 0.00 96 1012.3
20260509143509 55 67 0.9 0.0 0.00 0.00 0.00 96 1012.3
20260509143011 55 94 0.9 0.0 0.00 0.00 0.00 96 1012.3
20260509142506 55 30 1.7 0.0 0.00 0.00 0.00 96 1012.3
20260509142007 55 34 1.7 0.0 0.00 0.00 0.00 96 1012.3
20260509141507 54 67 1.7 0.0 0.00 0.00 0.00 96 1012.3
20260509141008 55 90 1.7 0.0 0.00 0.00 0.00 96 1012.2
20260509140506 54 71 1.7 0.0 0.00 0.00 0.00 96 1012.2
20260509140006 54 80 1.7 0.0 0.00 0.00 0.00 96 1012.2
20260509135506 54 26 1.7 0.0 0.00 0.00 0.00 96 1012.2
20260509135006 54 103 1.7 0.0 0.00 0.00 0.00 96 1012.2
20260509134506 54 24 1.7 0.0 0.00 0.00 0.00 96 1012.2
20260509134008 54 31 1.7 0.0 0.00 0.00 0.00 96 1012.1
20260509133506 54 37 1.7 0.0 0.00 0.00 0.00 96 1012.1
20260509133005 54 24 1.7 0.0 0.00 0.00 0.00 96 1012.1
20260509132505 54 55 1.7 0.0 0.00 0.00 0.00 96 1011.8
20260509132006 54 31 1.7 0.0 0.00 0.00 0.00 96 1011.8
20260509131505 54 63 2.6 0.0 0.00 0.00 0.00 96 1011.8
20260509131005 54 73 3.5 0.0 0.00 0.00 0.00 96 1011.7
20260509130505 54 30 2.6 0.0 0.00 0.00 0.00 96 1011.7
20260509130013 54 48 1.7 0.0 0.00 0.00 0.00 96 1011.5
20260509125505 54 69 1.7 0.0 0.00 0.00 0.00 96 1011.5
20260509125004 54 61 2.6 0.0 0.00 0.00 0.00 96 1011.5
20260509124515 54 67 2.6 0.0 0.00 0.00 0.00 96 1011.6
20260509124003 54 22 1.7 0.0 0.00 0.00 0.00 96 1011.6
20260509123504 54 59 1.7 0.0 0.00 0.00 0.00 96 1011.6
20260509123004 54 55 2.6 0.0 0.00 0.00 0.00 96 1011.7
20260509122504 54 88 2.6 0.0 0.00 0.00 0.00 96 1011.7
20260509122002 54 36 1.7 0.0 0.00 0.00 0.00 96 1011.7
20260509121502 54 82 1.7 0.0 0.00 0.00 0.00 96 1011.4
20260509121003 54 55 2.6 0.0 0.00 0.00 0.00 96 1011.4
20260509120501 54 78 0.9 0.0 0.00 0.00 0.00 96 1011.4
20260509120002 54 47 0.9 0.0 0.00 0.00 0.00 96 1011.5
20260509115500 54 25 1.7 0.0 0.00 0.00 0.00 96 1011.5
20260509115002 54 5 1.7 0.0 0.00 0.00 0.00 96 1011.5
20260509114627 54 22 1.7 0.0 0.00 0.00 0.00 95 1011.5
20260509114100 54 49 1.7 0.0 0.00 0.00 0.00 95 1011.5
20260509113600 54 355 1.7 0.0 0.00 0.00 0.00 95 1011.5
20260509113134 54 34 1.7 0.0 0.00 0.00 0.00 95 1011.5
20260509112600 54 51 1.7 0.0 0.00 0.00 0.00 96 1011.4
20260509112058 54 75 0.9 0.0 0.00 0.00 0.00 95 1011.4
20260509111558 54 71 0.9 0.0 0.00 0.00 0.00 95 1011.4
20260509111057 55 92 0.9 0.0 0.00 0.00 0.00 95 1011.4
20260509110557 55 99 0.9 0.0 0.00 0.00 0.00 95 1011.4
20260509105557 55 60 1.7 0.0 0.00 0.00 0.00 95 1011.4
20260509105057 55 62 1.7 0.0 0.00 0.00 0.00 95 1011.4
20260509104557 55 81 1.7 0.0 0.00 0.00 0.00 95 1011.4
20260509104056 55 25 0.9 0.0 0.00 0.00 0.00 95 1011.5
20260509103556 55 124 0.9 0.0 0.00 0.00 0.00 95 1011.5
20260509103107 55 57 1.7 0.0 0.00 0.00 0.00 95 1011.5
20260509102556 55 46 1.7 0.0 0.00 0.00 0.00 96 1011.5
20260509102056 55 34 2.6 0.0 0.00 0.00 0.00 95 1011.5
20260509101602 55 35 2.6 0.0 0.00 0.00 0.00 95 1011.5
20260509101055 55 49 1.7 0.0 0.00 0.00 0.00 95 1011.6
20260509100554 55 40 1.7 0.0 0.00 0.00 0.00 95 1011.6
20260509100054 55 41 1.7 0.0 0.00 0.00 0.00 95 1011.6
20260509095553 55 73 0.9 0.0 0.00 0.00 0.00 96 1011.7
20260509095053 55 5 1.7 0.0 0.00 0.00 0.00 96 1011.7
20260509094559 55 27 1.7 0.0 0.00 0.00 0.00 96 1011.7
20260509094058 55 86 0.9 0.0 0.00 0.00 0.00 95 1011.9
20260509093554 54 53 0.9 0.0 0.00 0.00 0.00 95 1011.9
20260509093053 54 98 0.9 0.0 0.00 0.00 0.00 95 1011.9
20260509092552 54 133 0.9 0.0 0.00 0.00 0.00 95 1011.9
20260509092052 54 118 0.9 0.0 0.00 0.00 0.00 95 1011.9
20260509091554 54 112 0.9 0.0 0.00 0.00 0.00 95 1011.9
20260509091051 54 112 0.9 0.0 0.00 0.00 0.00 95 1012.1
20260509090552 54 151 0.0 0.0 0.00 0.00 0.00 95 1012.1
20260509090050 54 111 0.0 0.0 0.00 0.00 0.00 95 1012.1
20260509085550 54 111 0.0 0.0 0.00 0.00 0.00 95 1012.2
20260509085054 54 111 0.0 0.0 0.00 0.00 0.00 95 1012.2
20260509084601 55 111 0.0 0.0 0.00 0.00 0.00 95 1012.2
20260509084050 55 111 1.7 0.0 0.00 0.00 0.00 95 1012.2
20260509083550 55 120 1.7 0.0 0.00 0.00 0.00 95 1012.2
20260509083049 54 69 0.9 0.0 0.00 0.00 0.00 95 1012.2
20260509082549 54 149 0.0 0.0 0.00 0.00 0.00 95 1012.3
20260509082049 54 149 0.0 0.0 0.00 0.00 0.00 95 1012.3
20260509081553 54 143 0.0 0.0 0.00 0.00 0.00 95 1012.3
20260509081049 54 143 0.0 0.0 0.00 0.00 0.00 95 1012.4
20260509080547 54 143 0.0 0.0 0.00 0.00 0.00 95 1012.4
20260509080051 54 143 0.0 0.0 0.00 0.00 0.00 95 1012.4
20260509075547 54 143 0.0 0.0 0.00 0.00 0.00 95 1012.7
20260509075046 54 143 0.0 0.0 0.00 0.00 0.00 95 1012.7
20260509074546 54 143 0.0 0.0 0.00 0.00 0.00 95 1012.7
20260509074046 54 143 0.0 0.0 0.00 0.00 0.00 95 1012.7
20260509073546 54 143 0.0 0.0 0.00 0.00 0.00 95 1012.7
20260509073047 54 143 0.9 0.0 0.00 0.00 0.00 95 1012.7
20260509072548 54 143 0.0 0.0 0.00 0.00 0.00 95 1012.7
20260509072044 54 143 0.0 0.0 0.00 0.00 0.00 95 1012.7
20260509071548 55 143 0.0 0.0 0.00 0.00 0.00 95 1012.7
20260509071044 55 143 0.0 0.0 0.00 0.00 0.00 95 1012.9
20260509070546 55 143 0.0 0.0 0.00 0.00 0.00 95 1012.9
20260509070049 54 143 0.0 0.0 0.00 0.00 0.00 95 1012.9
20260509065542 54 143 0.0 0.0 0.00 0.00 0.00 95 1012.9
20260509065043 54 143 0.9 0.0 0.00 0.00 0.00 95 1012.9
20260509064554 54 143 0.9 0.0 0.00 0.00 0.00 95 1012.9
20260509064041 54 170 0.0 0.0 0.00 0.00 0.00 95 1013.0
20260509063541 54 170 0.9 0.0 0.00 0.00 0.00 95 1013.0
20260509063042 54 170 0.9 0.0 0.00 0.00 0.00 95 1013.0
20260509062542 54 167 0.9 0.0 0.00 0.00 0.00 95 1013.2
20260509062042 54 171 0.9 0.0 0.00 0.00 0.00 95 1013.2
20260509061551 54 180 0.9 0.0 0.00 0.00 0.00 95 1013.2
20260509061042 55 159 0.9 0.0 0.00 0.00 0.00 95 1013.2
20260509060541 55 154 0.9 0.0 0.00 0.00 0.00 95 1013.2
20260509060042 55 183 0.9 0.0 0.00 0.00 0.00 95 1013.2
20260509055540 55 183 0.9 0.0 0.00 0.00 0.00 95 1013.2
20260509055040 55 156 0.9 0.0 0.00 0.00 0.00 95 1013.2
20260509054546 55 195 0.9 0.0 0.00 0.00 0.00 95 1013.2
20260509054040 55 171 0.9 0.0 0.00 0.00 0.00 95 1013.1
20260509053541 55 165 0.9 0.0 0.00 0.00 0.00 95 1013.1
20260509053040 55 182 0.9 0.0 0.00 0.00 0.00 95 1013.1
20260509052542 55 180 0.9 0.0 0.00 0.00 0.00 95 1013.1
20260509052040 55 178 0.9 0.0 0.00 0.00 0.00 95 1013.1
20260509051542 55 228 0.9 0.0 0.00 0.00 0.00 95 1013.1
20260509051040 55 194 0.9 0.0 0.00 0.00 0.00 95 1013.0
20260509050543 55 236 0.9 0.0 0.00 0.00 0.00 95 1013.0
20260509050040 55 166 0.9 0.0 0.00 0.00 0.00 95 1013.0
20260509045539 55 198 0.9 0.0 0.00 0.00 0.00 95 1013.0
20260509045039 55 180 0.0 0.0 0.00 0.00 0.00 95 1013.0
20260509044539 55 202 0.0 0.0 0.00 0.00 0.00 95 1013.0
20260509044039 55 214 0.0 0.0 0.00 0.00 0.00 94 1013.0
20260509043542 55 214 0.0 0.0 0.00 0.00 0.00 94 1013.0
20260509043039 55 216 0.9 0.0 0.00 0.00 0.00 94 1013.0
20260509042538 55 202 1.7 0.0 0.00 0.00 0.00 94 1012.9
20260509042038 55 172 1.7 0.0 0.00 0.00 0.00 94 1012.9
20260509041538 55 194 0.9 0.0 0.00 0.00 0.00 94 1012.9
20260509041039 55 221 0.9 0.0 0.00 0.00 0.00 94 1012.8
20260509040538 55 205 1.7 0.0 0.00 0.00 0.00 94 1012.8
20260509040042 55 216 1.7 0.0 0.00 0.00 0.00 94 1012.8
20260509035539 55 186 0.9 0.0 0.00 0.00 0.00 94 1012.7
20260509035038 55 162 1.7 0.0 0.00 0.00 0.00 94 1012.7
20260509034539 55 180 1.7 0.0 0.00 0.00 0.00 94 1012.7
20260509034036 55 171 1.7 0.0 0.00 0.00 0.00 94 1012.4
20260509033540 55 200 0.9 0.0 0.00 0.00 0.00 94 1012.4
20260509033037 56 191 0.9 0.0 0.00 0.00 0.00 94 1012.4
20260509032538 56 227 1.7 0.0 0.00 0.00 0.00 94 1012.4
20260509032037 56 180 1.7 0.0 0.00 0.00 0.00 94 1012.4
20260509031543 56 212 1.7 0.0 0.00 0.00 0.00 94 1012.4
20260509031037 56 193 1.7 0.0 0.00 0.00 0.00 94 1012.3
20260509030536 56 200 1.7 0.0 0.00 0.00 0.00 94 1012.3
20260509030036 56 198 0.9 0.0 0.00 0.00 0.00 94 1012.3
20260509025535 56 196 0.9 0.0 0.00 0.00 0.00 94 1012.2
20260509025039 56 188 0.9 0.0 0.00 0.00 0.00 94 1012.2
20260509024535 56 187 1.7 0.0 0.00 0.00 0.00 94 1012.2
20260509024036 56 186 1.7 0.0 0.00 0.00 0.00 94 1012.1
20260509023536 56 177 1.7 0.0 0.00 0.00 0.00 94 1012.1
20260509023036 57 229 0.9 0.0 0.00 0.00 0.00 94 1012.1
20260509022535 57 197 1.7 0.0 0.00 0.00 0.00 94 1011.9
20260509022034 57 229 1.7 0.0 0.00 0.00 0.00 94 1011.9
20260509021535 57 182 2.6 0.0 0.00 0.00 0.00 93 1011.9
20260509021037 57 202 2.6 0.0 0.00 0.00 0.00 93 1011.9
20260509020534 57 176 2.6 0.0 0.00 0.00 0.00 93 1011.9
20260509020033 57 247 3.5 0.0 0.00 0.00 0.00 93 1011.9
20260509015533 57 165 3.5 0.0 0.00 0.00 0.00 93 1011.8
20260509015034 58 211 2.6 0.0 0.00 0.00 0.00 93 1011.8
20260509014540 58 198 2.6 0.0 0.00 0.00 0.00 92 1011.8
20260509014033 58 191 2.6 0.0 0.00 0.00 0.00 93 1011.8
20260509013533 58 202 1.7 0.0 0.00 0.00 0.00 92 1011.8
20260509013036 58 279 1.7 0.0 0.00 0.00 0.00 92 1011.8
20260509012533 59 196 1.7 0.0 0.00 0.00 0.00 92 1011.9
20260509012034 59 209 1.7 0.0 0.00 0.00 0.00 92 1011.9
20260509011533 59 242 2.6 0.0 0.00 0.00 0.00 92 1011.9
20260509011032 59 171 3.5 0.0 0.00 0.00 0.00 92 1011.8
20260509010532 59 206 2.6 0.0 0.00 0.00 0.00 92 1011.8
20260509010038 59 166 2.6 0.0 0.00 0.00 0.00 91 1011.8
20260509005533 60 210 2.6 0.0 0.00 0.00 0.00 91 1011.8
20260509005033 60 186 1.7 0.0 0.00 0.00 0.00 91 1011.8
20260509004533 60 162 2.6 0.0 0.00 0.00 0.00 90 1011.8
20260509004032 60 170 2.6 0.0 0.00 0.00 0.00 89 1012.0
20260509003532 60 215 2.6 0.0 0.00 0.00 0.00 89 1012.0
20260509003031 61 185 2.6 0.0 0.00 0.00 0.00 89 1012.0
20260509002530 61 240 3.5 0.0 0.00 0.00 0.00 88 1012.0
20260509002030 62 144 4.3 0.0 0.00 0.00 0.00 86 1012.0
20260509001531 62 211 4.3 0.0 0.00 0.00 0.00 85 1012.0
20260509001030 63 211 3.5 0.0 0.00 0.00 0.00 84 1011.9
20260509000530 63 172 3.5 0.0 0.00 0.00 0.00 84 1011.9
20260509000030 63 199 3.5 0.0 0.00 0.00 0.00 84 1011.9
20260508235531 63 198 3.5 0.0 0.00 0.00 0.00 84 1011.9
20260508235031 64 215 2.6 0.0 0.00 0.00 0.00 83 1011.9
20260508234529 64 236 2.6 0.0 0.00 0.00 0.00 83 1011.9
20260508234030 63 162 2.6 0.0 0.00 0.00 0.00 84 1012.0
20260508233529 64 254 2.6 0.0 0.00 0.00 0.00 83 1012.0
20260508233029 64 204 2.6 0.0 0.00 0.00 0.00 83 1012.0
20260508232528 64 189 2.6 0.0 0.00 0.00 0.00 83 1012.0
20260508232028 64 173 3.5 0.0 0.00 0.00 0.00 82 1012.0
20260508231528 65 158 2.6 0.0 0.00 0.00 0.00 81 1012.0
20260508231027 65 213 2.6 0.0 0.00 0.00 0.00 83 1012.3
20260508230526 64 207 2.6 0.0 0.00 0.00 0.00 82 1012.3
20260508230025 64 245 2.6 0.0 0.00 0.00 0.00 82 1012.3
20260508225528 64 250 1.7 0.0 0.00 0.00 0.00 82 1012.3
20260508225025 64 178 1.7 0.0 0.00 0.00 0.00 83 1012.3
20260508224524 64 215 2.6 0.0 0.00 0.00 0.00 83 1012.3
20260508224023 64 217 2.6 0.0 0.00 0.00 0.00 84 1012.6
20260508223523 64 194 2.6 0.0 0.00 0.00 0.00 84 1012.6
20260508223029 64 194 2.6 0.0 0.00 0.00 0.00 85 1012.6
20260508222522 63 198 2.6 0.0 0.00 0.00 0.00 86 1012.8
20260508222024 63 175 2.6 0.0 0.00 0.00 0.00 86 1012.8
20260508221521 63 183 2.6 0.0 0.00 0.00 0.00 87 1012.8
20260508221021 63 200 2.6 0.0 0.00 0.00 0.00 86 1013.1
20260508220523 63 188 2.6 0.0 0.00 0.00 0.00 86 1013.1
20260508220100 63 172 2.6 0.0 0.00 0.00 0.00 87 1013.1
20260508215520 63 173 3.5 0.0 0.00 0.00 0.00 87 1013.1
20260508215020 63 165 3.5 0.0 0.00 0.00 0.00 85 1013.1
20260508214520 63 190 2.6 0.0 0.00 0.00 0.00 87 1013.1
20260508214018 62 174 3.5 0.0 0.00 0.00 0.00 86 1013.3
20260508213517 62 172 2.6 0.0 0.00 0.00 0.00 87 1013.3
20260508213017 62 360 2.6 0.0 0.00 0.00 0.00 87 1013.3
20260508212518 62 178 3.5 0.0 0.00 0.00 0.00 86 1013.6
20260508212017 62 152 3.5 0.0 0.00 0.00 0.00 88 1013.6
20260508211522 62 199 3.5 0.0 0.00 0.00 0.00 88 1013.6
20260508211016 62 169 3.5 0.0 0.00 0.00 0.00 87 1013.8
20260508210516 62 148 2.6 0.0 0.00 0.00 0.00 88 1013.8
20260508210015 62 148 2.6 0.0 0.00 0.00 0.00 88 1013.8
20260508205514 62 173 2.6 0.0 0.00 0.00 0.00 88 1013.8
20260508205014 62 184 2.6 0.0 0.00 0.00 0.00 89 1013.8
20260508204513 61 225 2.6 0.0 0.00 0.00 0.00 91 1013.8
20260508204017 61 182 3.5 0.0 0.00 0.00 0.00 90 1013.8
20260508203512 61 150 2.6 0.0 0.00 0.00 0.00 90 1013.8
20260508203012 61 181 2.6 0.0 0.00 0.00 0.00 90 1013.8
20260508202513 61 192 3.5 0.0 0.00 0.00 0.00 91 1014.0
20260508202011 61 169 3.5 0.0 0.00 0.00 0.00 91 1014.0
20260508201512 61 186 2.6 0.0 0.00 0.00 0.00 91 1014.0
20260508201011 60 149 2.6 0.0 0.00 0.00 0.00 92 1014.2
20260508200511 60 115 2.6 0.0 0.00 0.00 0.00 91 1014.2
20260508200010 61 155 2.6 0.0 0.00 0.00 0.00 92 1014.2
20260508195510 61 200 2.6 0.0 0.00 0.00 0.00 93 1014.3
20260508195008 60 211 2.6 0.0 0.00 0.00 0.00 94 1014.3
20260508194508 60 166 2.6 0.0 0.00 0.00 0.00 94 1014.3
20260508194008 60 206 2.6 0.0 0.00 0.00 0.00 94 1014.4
20260508193506 60 192 2.6 0.0 0.00 0.00 0.00 95 1014.4
20260508193005 59 165 2.6 0.0 0.00 0.00 0.00 95 1014.4
20260508192504 59 228 2.6 0.0 0.00 0.00 0.00 95 1014.5
20260508192004 59 146 1.7 0.0 0.00 0.00 0.00 96 1014.5
20260508191505 58 183 1.7 0.0 0.00 0.00 0.00 96 1014.8
20260508191002 58 201 1.7 0.0 0.00 0.00 0.00 96 1014.8
20260508190504 58 149 1.7 0.0 0.00 0.00 0.00 96 1014.8
20260508190108 57 204 1.7 0.0 0.00 0.00 0.00 96 1014.8
20260508185559 57 209 1.7 0.0 0.00 0.00 0.00 95 1015.0
20260508185059 57 200 1.7 0.0 0.00 0.00 0.00 96 1015.0
20260508184558 57 219 1.7 0.0 0.00 0.00 0.00 96 1015.0
20260508184057 57 185 1.7 0.0 0.00 0.00 0.00 96 1015.0
20260508183557 57 178 1.7 0.0 0.00 0.00 0.00 96 1015.0
20260508183057 57 195 1.7 0.0 0.00 0.00 0.00 96 1015.0
20260508182556 57 161 1.7 0.0 0.00 0.00 0.00 96 1015.0
20260508182057 57 204 1.7 0.0 0.00 0.00 0.00 96 1015.0
20260508181608 57 207 1.7 0.0 0.00 0.00 0.00 96 1015.0
20260508181056 57 158 1.7 0.0 0.00 0.00 0.00 96 1015.0
20260508180556 56 203 1.7 0.0 0.00 0.00 0.00 96 1015.0
20260508180105 56 155 1.7 0.0 0.00 0.00 0.00 96 1015.0
20260508175555 56 173 1.7 0.0 0.00 0.00 0.00 96 1015.1
20260508175055 56 236 1.7 0.0 0.00 0.00 0.00 96 1015.1
20260508174609 56 84 0.9 0.0 0.00 0.00 0.00 96 1015.1
20260508174056 56 42 0.9 0.0 0.00 0.00 0.00 96 1015.2